Weather History for Pompano Beach, FL

Change the Weather History Date:

Wednesday, November 13, 2013

  Actual Average Record
Temperature  
Mean Temperature 75 °F -  
Max Temperature 79 °F 82 °F 90 °F (1986)
Min Temperature 71 °F 64 °F 42 °F (1968)
Cooling Degree Days 10    
Growing Degree Days 25 (Base 50)    
Moisture  
Dew Point 63 °F    
Average Humidity 71    
Maximum Humidity 83    
Minimum Humidity 54    
Precipitation  
Precipitation 0.32 in - - ()
Sea Level Pressure  
Sea Level Pressure 30.11 in    
Wind  
Wind Speed 14 mph (NNE)    
Max Wind Speed 28 mph    
Max Gust Speed 36 mph    
Visibility 8 miles    
Events Rain    
Averages and records for this station are not official NWS values.
T = Trace of Precipitation, MM = Missing Value Source: NWS Daily Summary

Daily Weather History Graph

Daily Weather History Graph

Search for Another Location

Airport:

Trip Planner

Search our weather history database for the weather conditions in past years. The results will help you decide how hot, cold, wet, or windy it might be!

Date:

Astronomy

Nov. 13, 2013 Rise Set
Actual Time 6:37 AM EST 5:31 PM EST
Civil Twilight 6:13 AM EST 5:55 PM EST
Nautical Twilight 5:45 AM EST 6:23 PM EST
Astronomical Twilight 5:18 AM EST 6:51 PM EST
Moon 2:59 PM EST (11/13) 2:50 AM EST (11/13)
Length of Visible Light 11h 42m
Length of Day
10h 53m
Waxing Gibbous, 84% of the Moon is Illuminated
Nov 13
Waxing Gibbous
Nov 17
Full
Nov 25
Last Quarter
Dec 2
New
Dec 9
First Quarter

Hourly Weather History & Observations

Time (EST) Temp. Dew Point Humidity Pressure Visibility Wind Dir Wind Speed Gust Speed Precip Events Conditions
12:53 AM 75.0 °F 64.9 °F 71% 30.04 in 10.0 mi North 8.1 mph - N/A   Clear
1:53 AM 73.9 °F 64.9 °F 73% 30.01 in 10.0 mi North 8.1 mph - N/A   Clear
2:53 AM 73.0 °F 64.9 °F 76% 30.01 in 10.0 mi North 11.5 mph - N/A   Clear
3:53 AM 73.0 °F 64.0 °F 73% 30.01 in 10.0 mi North 10.4 mph - N/A   Partly Cloudy
4:53 AM 72.0 °F 64.0 °F 76% 30.03 in 10.0 mi NNW 11.5 mph - N/A   Clear
5:53 AM 72.0 °F 62.1 °F 71% 30.04 in 10.0 mi North 10.4 mph - N/A   Partly Cloudy
6:53 AM 72.0 °F 60.1 °F 66% 30.06 in 10.0 mi North 11.5 mph 19.6 mph N/A   Clear
7:53 AM 72.0 °F 60.1 °F 66% 30.09 in 10.0 mi NNW 10.4 mph 20.7 mph N/A   Overcast
8:53 AM 73.0 °F 62.1 °F 68% 30.11 in 9.0 mi North 12.7 mph 26.5 mph N/A   Partly Cloudy
9:53 AM 78.1 °F 62.1 °F 58% 30.12 in 10.0 mi North 17.3 mph 25.3 mph N/A   Scattered Clouds
10:53 AM 79.0 °F 61.0 °F 54% 30.12 in 10.0 mi North 12.7 mph - N/A   Mostly Cloudy
11:46 AM 73.4 °F 64.4 °F 73% 30.12 in 1.5 mi North 18.4 mph 27.6 mph 0.05 in Rain Rain
11:53 AM 73.0 °F 66.0 °F 79% 30.11 in 5.0 mi NE 13.8 mph 26.5 mph 0.14 in Rain Heavy Rain
12:00 PM 71.6 °F 66.2 °F 83% 30.11 in 5.0 mi ENE 8.1 mph 21.9 mph 0.00 in Rain Light Rain
12:34 PM 71.6 °F 66.2 °F 83% 30.10 in 5.0 mi NNW 16.1 mph 25.3 mph 0.08 in Rain Light Rain
12:53 PM 73.0 °F 66.0 °F 79% 30.09 in 5.0 mi North 12.7 mph 24.2 mph 0.08 in   Haze
1:34 PM 71.6 °F 66.2 °F 83% 30.09 in 8.0 mi North 12.7 mph 24.2 mph 0.00 in Rain Light Rain
1:44 PM 71.6 °F 66.2 °F 83% 30.10 in 9.0 mi NNE 17.3 mph 25.3 mph 0.00 in Rain Light Rain
1:53 PM 72.0 °F 64.9 °F 78% 30.09 in 10.0 mi NNE 17.3 mph 25.3 mph 0.00 in   Overcast
2:35 PM 71.6 °F 64.4 °F 78% 30.09 in 1.8 mi ENE 23.0 mph 28.8 mph 0.06 in Rain Light Rain
2:40 PM 71.6 °F 64.4 °F 78% 30.09 in 3.0 mi NNE 17.3 mph 29.9 mph 0.09 in Rain Heavy Rain
2:50 PM 71.6 °F 64.4 °F 78% 30.09 in 3.0 mi NNE 20.7 mph 34.5 mph 0.10 in Rain Light Rain
2:53 PM 72.0 °F 64.9 °F 78% 30.10 in 3.0 mi NE 19.6 mph 34.5 mph 0.10 in Rain Light Rain
3:53 PM 71.1 °F 64.0 °F 78% 30.12 in 7.0 mi NNE 23.0 mph 31.1 mph 0.00 in Rain Light Rain
4:53 PM 73.0 °F 61.0 °F 66% 30.12 in 10.0 mi NE 26.5 mph 34.5 mph 0.00 in   Overcast
5:53 PM 73.0 °F 62.1 °F 68% 30.15 in 7.0 mi NE 24.2 mph 29.9 mph 0.00 in Rain Light Rain
6:53 PM 73.0 °F 59.0 °F 61% 30.16 in 10.0 mi NE 25.3 mph 32.2 mph 0.00 in   Overcast
7:53 PM 73.0 °F 59.0 °F 61% 30.18 in 10.0 mi NE 26.5 mph 33.4 mph N/A   Overcast
8:53 PM 72.0 °F 57.9 °F 61% 30.21 in 10.0 mi NNE 27.6 mph 35.7 mph 0.00 in   Overcast
9:53 PM 72.0 °F 57.0 °F 59% 30.22 in 10.0 mi NE 21.9 mph 34.5 mph N/A   Overcast
10:53 PM 71.1 °F 57.0 °F 61% 30.21 in 10.0 mi NE 19.6 mph 28.8 mph N/A   Overcast
11:53 PM 71.1 °F 55.0 °F 57% 30.19 in 10.0 mi NE 19.6 mph 32.2 mph N/A   Overcast